Regional Weather Roundup
Issued by NWS

Current Version | Previous Version | Text Only | Print | Product List | Glossary On
Versions: 1 2 3 4 5 6 7 8 9 10 11 12 13 14 15 16 17 18 19 20 21 22 23 24 25 26 27
000
ASUS42 KTBW 191017
RWRFL
FLORIDA REGIONAL WEATHER ROUNDUP
NATIONAL WEATHER SERVICE TAMPA BAY RUSKIN FL
500 AM EST MON FEB 19 2018

NOTE: "FAIR" INDICATES FEW OR NO CLOUDS BELOW 12,000 FEET WITH NO
SIGNIFICANT WEATHER AND/OR OBSTRUCTIONS TO VISIBILITY.

FLZ001>010-012>015-112-114-115-191100-
PANHANDLE FLORIDA

CITY           SKY/WX    TMP DP  RH WIND       PRES   REMARKS
PENSACOLA      FAIR      68  66  93 SE6       30.18R
PENSACOLA NAS  FAIR      68  65  90 MISG      30.17S
MILTON NAS     FAIR      65  65 100 SE5       30.19
CRESTVIEW      FOG       61  59  93 CALM      30.21S VSB 1/4
DUKE FIELD     FAIR      64  64 100 SE3       30.20R
VALPARAISO     PTCLDY    67  67  99 SE3       30.18S
MARY ESTHER    FAIR      67  67  98 SE3       30.18R
PANAMA CITY    FOG       63  62  97 E5        30.21R VSB 1/4
TYNDALL AFB    MOCLDY    64  64 100 SE7       30.22R
APALACHICOLA   CLOUDY    66  66 100 E7        30.22R

STATION/POSITION SKY/WX   TEMP    WIND        PRES    WAVE   SWELL
                          AIR SEA DIR/SP/G            HT/PER HT/PER
                          (F)     (DEG/KT/KT) (MB)    (FT/S) (FT/S)
29.2N   88.2W              74     140/ 19/ 25 1020.6
28.8N   86.0W              74 74  120/ 14/ 17 1021.9R   2/ 4
PANAMA CITY BEAC           66 69  130/ 12/ 15 1023.3R
TOWER C                    66     130/ 10/ 11 1023.8R

$$
FLZ011-016>038-118-127-128-134-139-239-191100-
NORTH FLORIDA

CITY           SKY/WX    TMP DP  RH WIND       PRES   REMARKS
MARIANNA       MOCLDY    65  64  97 CALM      30.23R
TALLAHASSEE    FAIR      63  63 100 SE8       30.24S
PERRY          CLOUDY    64  62  96 E7        30.26S FOG
LIVE OAK       CLOUDY    64  64 100 CALM      30.28S
CROSS CITY     FOG       64 N/A N/A E3        30.30S VSB 1
LAKE CITY      CLOUDY    63  63 100 E3        30.28R
GAINESVILLE    CLOUDY    66  65  96 E6        30.30R
WILLISTON      FOG       66  66 100 CALM      30.27R VSB 1/2
PALATKA        FOG       64  64 100 NE3       30.29R VSB 1/4
MAYPORT NAS    CLOUDY    62  61  96 N5        30.28S
JACKSONVILLE   FOG       63  63 100 NE3       30.28R VSB 1
JAX NAS        FOG       64  64 100 NE3       30.29F VSB 1/4
JAX CECIL      FOG       64  64 100 CALM      30.28S VSB<1/4
FERNANDINA BEA CLOUDY    63  61  94 CALM      30.27S
ST AUGUSTINE   FOG       60  60 100 N5        30.30R VSB 1/2
PALM COAST     FAIR      60  60  99 CALM      30.28R FOG

STATION/POSITION SKY/WX   TEMP    WIND        PRES    WAVE   SWELL
                          AIR SEA DIR/SP/G            HT/PER HT/PER
                          (F)     (DEG/KT/KT) (MB)    (FT/S) (FT/S)
SHELL POINT      NOT AVBL
KEATON BEACH               64      80/  9/ 10 1024.6R
CEDAR KEY                  68     100/ 10/ 11 1024.6R
FERNANDINA                 62 64  350/  3/  5 1026.4R
30.7N   81.3W                 58                N/A     2/10
MAYPORT                    61 62   30/  3/  5 1025.4R
31.4N   80.9W              59 58   40/  6/  6 1025.6R   3/ 6   3/ 6
ST AUGUSTINE               58 59  350/  9/  9 1025.6R

$$
FLZ040-043>046-052-053-057-058-063-144-191100-
INTERIOR CENTRAL FLORIDA

CITY           SKY/WX    TMP DP  RH WIND       PRES   REMARKS
OCALA          FOG       62  62 100 CALM      30.27S VSB 1/4
LEESBURG       FAIR      68  68 100 E3        30.27R
SANFORD        FOG       62  61  96 CALM      30.26S VSB 1/4
ORLANDO EXEC   FAIR      63  63 100 NE3       30.26R FOG
ORLANDO INTL   FAIR      64  64 100 E3        30.26S FOG
KISSIMMEE      FAIR      64  64 100 CALM      30.27R
WINTER HAVEN   FAIR      66  66 100 E5        30.27R
BARTOW         FOG       63 N/A N/A CALM      30.26R VSB 1/4
SEBRING        FAIR      63  61  93 CALM      30.25R
OKEECHOBEE     FAIR      64  61  88 E3        30.24S

$$
FLZ041-047-054-059-064-141-147-191100-
EAST CENTRAL FLORIDA

CITY           SKY/WX    TMP DP  RH WIND       PRES   REMARKS
DAYTONA BEACH  FAIR      61  61 100 CALM      30.27R FOG
DELAND         FOG       61  61 100 CALM      30.27R VSB 3/4
JFK SPACE CTR  FOG       64  64 100 E3        30.26R VSB 3/8
CAPE CANAVERAL FAIR      66  64  93 SE5       30.25R
PATRICK AFB    FAIR      71  70  97 SE9       30.25
MELBOURNE      FAIR      74  65  73 SE8       30.25R
VERO BEACH     FAIR      72  64  76 E7        30.25R
FT PIERCE      FAIR      70  65  84 E10       30.25R
STUART         FAIR      73  64  73 E13       30.25S

STATION/POSITION SKY/WX   TEMP    WIND        PRES    WAVE   SWELL
                          AIR SEA DIR/SP/G            HT/PER HT/PER
                          (F)     (DEG/KT/KT) (MB)    (FT/S) (FT/S)
28.5N   80.2W                     120/ 14/ 16 1024.8R   3/ 9   2/ 9
TRIDENT PIER               69 69  100/  3/  4 1025.8R
28.4N   80.5W                 70                N/A     2/10
27.5N   80.2W                 74                N/A     3/ 5

$$
FLZ050-056-061-142-242-148-248-149-249-151-251-155-255-
160-260-191100-
WEST CENTRAL FLORIDA

CITY           SKY/WX    TMP DP  RH WIND       PRES   REMARKS
CRYSTAL RIVER  CLOUDY    64  64 100 CALM      30.26R FOG
INVERNESS      FOG       64  64 100 CALM      30.27R VSB 1/4
BROOKSVILLE    CLOUDY    67  65  93 E5        30.26S FOG
CLEARWATER AIR FAIR      68  66  94 E5        30.24R
ST PETE CLEARW FAIR      69  67  93 E8        30.24R
TAMPA INTL     FAIR      71  66  84 E5        30.25R
TAMPA EXEC       N/A     63  63 100 CALM      30.25S FOG
PLANT CITY     FAIR      68  66  94 E3        30.27R FOG
MACDILL AFB    FAIR      67  65  94 E6        30.24R
PETER O KNIGHT FAIR     N/A N/A N/A E5        30.25R
ST PETERSBURG  FAIR      70  67  90 SE13      30.22R
SARASOTA       FAIR      65  63  93 E5        30.22R
VENICE         FAIR      66  64  94 NE5       30.23S

STATION/POSITION SKY/WX   TEMP    WIND        PRES    WAVE   SWELL
                          AIR SEA DIR/SP/G            HT/PER HT/PER
                          (F)     (DEG/KT/KT) (MB)    (FT/S) (FT/S)
27.3N   84.2W                 73                N/A     2/ 6
CLEARWATER BEACH           70 71  100/  6/ 10 1023.8R
MIDDLE TAMPA BAY           67     130/ 10/ 13 1023.8R
VENICE                     67 71   70/  3/  5 1023.6R

$$
FLZ066-069-070-075>078-162-262-165-265-191100-
SOUTHWEST FLORIDA AND KEYS

CITY           SKY/WX    TMP DP  RH WIND       PRES   REMARKS
PUNTA GORDA    FAIR      61  59  93 NE7       30.24S FOG
FT MYERS       FAIR      66  64  93 E6        30.21S
SOUTHWEST INTL FAIR      63  63 100 NE6       30.22R
NAPLES         FAIR      64  64 100 E6        30.21R
MARCO ISLAND   FAIR      64  62  93 NE7       30.22R
IMMOKALEE      FAIR      63  61  94 NE3       30.23R
MARATHON       FAIR      75  66  73 E9        30.17S
KEY WEST NAS   FAIR      73  68  84 E12       30.17S
KEY WEST INTL  FAIR      75  66  73 E9        30.17S

STATION/POSITION SKY/WX   TEMP    WIND        PRES    WAVE   SWELL
                          AIR SEA DIR/SP/G            HT/PER HT/PER
                          (F)     (DEG/KT/KT) (MB)    (FT/S) (FT/S)
NAPLES                        74   70/  4/  6 1022.9R
DRY TORTUGAS               73      90/ 16/ 20 1021.4R
SAND KEY                   76                 1022.0R
LONG KEY                   75     100/ 17       N/A
MOLASSES REEF              75 76  100/ 18/ 20 1022.4R

$$
FLZ067-068-071>074-168-172>174-191100-
SOUTHEAST FLORIDA

CITY           SKY/WX    TMP DP  RH WIND       PRES   REMARKS
W PALM BEACH   FAIR      74  62  66 E18       30.24R
FT LAUDER-EXEC FAIR      74  65  73 E14       30.22R
FT LAUDERDALE  FAIR      74  66  76 E14       30.21R
POMPANO BEACH  FAIR      75  66  73 E16       30.22R
PEMBROKE PINES FAIR      74  63  68 E9        30.23R
OPA LOCKA      FAIR      73  63  70 E12       30.22R
MIAMI          FAIR      74  64  71 E14       30.21S
WEST KENDALL   FAIR      72  63  73 E13       30.21R
HOMESTEAD      FAIR      74  64  71 E14       30.19S

STATION/POSITION SKY/WX   TEMP    WIND        PRES    WAVE   SWELL
                          AIR SEA DIR/SP/G            HT/PER HT/PER
                          (F)     (DEG/KT/KT) (MB)    (FT/S) (FT/S)
PORT EVERGLADES            76      90/ 10/ 17 1023.2
VIRGINIA KEY               75 77   60/ 14/ 19 1022.1R
LAKE WORTH                 75 75  100/ 18/ 21 1024.5R
FOWEY ROCKS                75 75   80/ 18/ 19 1023.4R
SETTLEMENT POINT           74     100/ 17/ 20 1024.2R

$$





USA.gov is the U.S. government's official web portal to all federal, state and local government web resources and services.